Location: Mannheim
(49.4880°N, 8.4650°E)
Time: 21:06:18
(UTC+02:00)

ISS - Pass Details

Date: 22 September 2022
Orbit: 414 x 417 km, 51.6° (Epoch: 24 September)

Event Time Altitude Azimuth Distance (km) Brightness Sun altitude
Rises 21:20:08 0° 274° (W) 2,361 1.4 -19.1°
Reaches altitude 10° 21:22:15 10° 279° (W) 1,498 0.2 -19.4°
Maximum altitude 21:25:34 57° 359° (N) 499 -3.3 -19.9°
Enters shadow 21:25:53 54° 26° (NNE) 518 -3.4 -19.9°
